Вернуться в каталог

CZ-6A R/B

АктивенСвязьPO
NORAD 69091·PAYLOAD·🇨🇳 China

Запущен May 12, 2026 с Taiyuan Satellite Launch Center

Loading…

Ближайшие Пролёты (ближайшие 24 часа)

TLE

СвежийSource: Space-Track

Эпоха: Sep 14, 2026, 21:55 UTC

1 69091U 26104U   26257.91368540  .00000204  00000-0  38285-4 0  9992
2 69091  89.0174 330.7998 0093798  35.5149 325.2257 14.57502248 18281

Отслеживайте CZ-6A R/B в реальном времени с AllMySat

Download on the App Store